Regional Weather Roundup
Issued by NWS Jackson, KY

Home | Current Version | Previous Version | Text Only | Print | Product List | Glossary Off
Versions: 1 2 3 4 5 6 7 8 9 10 11 12 13 14 15 16 17 18 19 20 21 22 23 24 25 26 27

000
ASUS43 KJKL 261710
RWRJKL

EAST KENTUCKY HOURLY WEATHER ROUNDUP
NATIONAL WEATHER SERVICE JACKSON KY
100 PM EDT WED JUL 26 2017

NOTE: "FAIR" INDICATES FEW OR NO CLOUDS BELOW 12,000 FEET WITH
NO SIGNIFICANT WEATHER AND/OR OBSTRUCTIONS TO VISIBILITY.

* THESE REPORTS ARE NOT UNDER NWS QUALITY CONTROL AND MAY NOT
  REPORT WEATHER SUCH AS PRECIPITATION AND FOG.

KYZ079-080-083-085-087-088-110-112-115-119-120-261800
...EASTERN KENTUCKY...

CITY           SKY/WX    TMP DP  RH WIND       PRES   REMARKS
JACKSON        SUNNY     81  67  62 VRB3      30.17F
LONDON         PTSUNNY   85  64  49 E6        30.16F
SOMERSET*      CLOUDY    82  63  51 CALM      30.16S
MONTICELLO*    PTSUNNY   85  70  60 W8        30.16F
WILLIAMSBURG*  MOSUNNY   84  64  51 CALM      30.16S
MIDDLESBORO*   MOSUNNY   86  68  54 CALM      30.16F
PIKE CO APT*     N/A     80  65  60 CALM      30.17F
BIG SANDY APT* SUNNY     82  67  60 CALM      30.16F
MOREHEAD APT*  SUNNY     81  63  54 VRB5      30.17S
ASHLAND*       SUNNY     81  70  69 N3        30.13S
$$

KYZ035-036-041-042-044-050-067-078-099-261800
...CENTRAL KENTUCKY...

CITY           SKY/WX    TMP DP  RH WIND       PRES   REMARKS
MT STERLING*   SUNNY     82  63  51 NE5       30.17F
FLEMING/MASON* SUNNY     80  62  54 CALM      30.17S
DANVILLE*      SUNNY     84  66  54 S5        30.15F
LEXINGTON      SUNNY     84  65  52 CALM      30.15F
FRANKFORT      SUNNY     85  66  53 VRB3      30.13F
LOUISVILLE     MOSUNNY   87  68  52 SE5       30.10F HX  90
LEBANON*         N/A     86  66  51 S3        30.13F
GLASGOW*       PTSUNNY   91  70  50 CALM      30.11F HX  96
BOWLING GREEN  MOSUNNY   91  72  53 W3        30.10F HX  98
$$

KYZ091>093-OHZ055-061-077-WVZ005-015-034-035-042-261800
...SOUTHERN OHIO/WEST VIRGINIA...

CITY           SKY/WX    TMP DP  RH WIND       PRES   REMARKS
COVINGTON      MOSUNNY   82  66  58 E6        30.14F
COLUMBUS       MOSUNNY   77  63  61 S5        30.15F
DAYTON         MOSUNNY   76  57  51 CALM      30.16F
WILMINGTON     SUNNY     76  64  66 CALM      30.16F
HUNTINGTON     SUNNY     81  64  56 VRB3      30.14F
CHARLESTON     MOSUNNY   84  63  49 SE8       30.14F
PINEVILLE*     MOSUNNY   82  66  57 MISG      30.23F
BECKLEY        PTSUNNY   75  64  68 S12       30.24F
BLUEFIELD      MOSUNNY   71  62  73 VRB5      30.27F
LOGAN CO APT*    N/A     81  64  57 CALM      30.17F
$$

VAZ002-007-008-TNZ017-027-036-066-071-261800
...SOUTHWEST VIRGINIA/EAST TENNESSEE...

CITY           SKY/WX    TMP DP  RH WIND       PRES   REMARKS
WISE*          SUNNY     81  59  47 W5        30.25F
JONESVILLE*      N/A     86  66  51 W6        30.19F
ABINGDON*      MOSUNNY   84  67  56 NW6       30.22S
BRISTOL        MOSUNNY   87  64  46 W5        30.18F
MORRISTOWN*    SUNNY     88  64  45 VRB6      30.15F
SEVIERVILLE*     N/A     91  64  40 VRB7      30.13F HX  93
KNOXVILLE      MOSUNNY   90  63  40 CALM      30.13F HX  91
LAFOLLETTE*    MOSUNNY   86  72  62 E5        30.18F HX  92
OAK RIDGE      SUNNY     89  66  46 CALM      30.15F HX  91
CROSSVILLE     SUNNY     83  68  60 CALM      30.20F
NASHVILLE      PTSUNNY   91  71  51 SW6       30.11F HX  97
$$

...KEY TO REMARKS...
VSB - VISIBILITY IN MILES
WCI - WIND CHILL INDEX
HX  - HEAT INDEX

$$




USA.gov is the U.S. government's official web portal to all federal, state and local government web resources and services.